Location: Caltech
(34.1382°N, 118.1253°W)
Time: 20:32:53
(UTC-07:00)

Daily predictions for brighter satellites

Satellite Brightness Start Highest point End
(mag) Time Altitude Azimuth Time Altitude Azimuth Time Altitude Azimuth
Cosmos 405 Rocket 2.6 20:31:45 10° S 20:35:26 89° ENE 20:39:09 10° N
Cosmos 2322 Rocket 3.3 20:32:28 10° N 20:37:14 27° ENE 20:41:57 10° ESE
Cosmos 2026 Rocket 4.0 20:35:14 10° S 20:41:15 71° E 20:47:22 10° N
Cosmos 371 Rocket 4.4 20:40:21 10° N 20:44:30 28° ENE 20:48:37 10° SE
Cosmos 1076 Rocket 3.5 20:41:24 10° S 20:45:39 86° W 20:49:56 10° N
SL-16 R/B 3.2 20:40:53 10° N 20:45:52 30° ENE 20:50:48 10° ESE
Meteor 1-24 Rocket 3.9 20:40:41 10° S 20:46:23 79° W 20:51:55 10° N
Cosmos 2360 Rocket 4.2 20:46:04 10° NNE 20:48:17 12° NE 20:50:31 10° ENE
Cosmos 1980 Rocket 2.3 20:42:39 10° NNW 20:48:21 88° WSW 20:54:02 10° SSE
ALOS 2.7 20:46:08 10° S 20:50:46 66° W 20:55:25 10° NNW
Cosmos 1655 Rocket 4.0 20:49:03 10° S 20:55:16 88° E 21:01:30 10° N
H-2A R/B 2.7 20:51:17 10° SE 20:55:31 42° ENE 20:59:47 10° N
Cosmos 1697 Rocket 3.8 20:50:13 10° NW 20:55:32 43° WSW 21:00:49 10° S
USA 186 2.7 20:55:53 10° SSW 20:58:02 32° W 21:00:14 10° NNW
Meteor 2-1 Rocket 4.4 20:54:40 10° NNW 21:00:18 76° W 21:05:49 10° S
FENGYUN 3A 4.3 20:56:31 10° S 21:01:49 58° W 21:07:11 10° NNW
Cosmos 1437 Rocket 4.3 20:59:03 10° NNE 21:01:50 19° ENE 21:03:44 14° ESE
Cosmos 1674 4.1 21:01:11 14° SE 21:03:15 21° E 21:06:11 10° NE
Cosmos 2228 Rocket 3.2 20:59:16 10° N 21:03:41 57° E 21:08:00 11° SSE
Cosmos 1328 Rocket 4.0 21:00:22 10° N 21:04:37 44° E 21:08:14 14° SSE
S3M 4.1 20:58:48 10° N 21:04:48 56° E 21:10:47 10° SSE
H-2A R/B 4.0 21:03:03 10° S 21:06:42 40° W 21:10:20 10° NNW
Cosmos 1743 Rocket 3.5 21:08:16 10° S 21:12:44 85° E 21:17:13 10° N
Delta 128 4.3 21:09:11 10° WSW 21:13:23 35° S 21:16:00 19° SE
Meteor 1-21 Rocket 4.2 21:09:12 10° S 21:14:42 67° E 21:20:11 10° NNE
SJ-11-01 4.3 21:10:31 10° SSE 21:15:13 86° WSW 21:19:58 10° NNW
GPS 2-04 Rocket1 2.8 21:12:16 10° W 21:16:38 81° SSW 21:19:40 19° ESE
CZ-4B R/B 4.3 21:12:22 10° NE 21:17:02 32° E 21:20:20 17° SSE
Cosmos 1500 Rocket 3.5 21:15:34 10° S 21:19:51 67° E 21:24:13 10° NNE
deb Chang Zheng 4 3.9 21:16:45 10° N 21:21:04 70° WNW 21:25:22 10° SSW
Cosmos 540 Rocket 4.1 21:21:09 10° NNW 21:26:10 53° WSW 21:31:09 10° S
AVUM R/B 3.9 21:30:15 24° ENE 21:30:15 24° ENE 21:31:30 10° NE
USA 229 DEB 3.7 21:25:50 10° SSW 21:32:44 88° SE 21:39:46 10° NNE
USA 229 3.7 21:25:56 10° SSW 21:32:51 88° ESE 21:39:51 10° NNE
Delta 2 Rocket 2.8 21:32:58 10° WSW 21:36:24 57° SSE 21:37:41 32° E
CZ-4 SHROUD 3.2 21:35:59 38° SE 21:36:57 60° ENE 21:40:03 10° N
Cosmos 968 Rocket 4.4 21:32:39 10° SW 21:37:39 51° WNW 21:42:44 10° N
BREEZE M DEB (TANK) 2.7 21:36:57 10° W 21:38:53 34° SSW 21:39:42 28° S
USA 245 4.0 21:42:13 23° ENE 21:42:13 23° ENE 21:44:07 10° NNE
YAOGAN 6 3.1 21:43:09 36° ESE 21:44:05 44° ENE 21:47:34 10° N
ASTRO E2 4.5 21:41:38 10° WSW 21:44:24 18° SSW 21:44:58 17° SSW
ATLAS CENTAUR R/B 2.1 21:41:43 10° NW 21:46:00 48° WSW 21:48:06 25° S
UNK 4.5 21:41:05 10° NNE 21:47:17 83° ESE 21:53:35 10° SSW
Terra 3.7 21:47:00 14° E 21:48:05 15° ENE 21:50:46 10° NNE
Cosmos 1515 Rocket 3.8 21:46:36 10° NNW 21:51:01 67° W 21:53:42 23° S
DELTA 2 R/B (1) 4.3 21:46:13 10° WNW 21:51:37 50° N 21:56:17 14° E
Envisat 3.3 21:47:57 18° S 21:51:42 63° W 21:56:44 10° NNW
NOSS 3-1 (A) 4.2 21:52:29 27° ESE 21:52:48 28° ESE 21:57:55 10° NE
Cosmos 2315 Rocket 4.3 21:50:26 10° N 21:56:26 50° E 21:59:01 32° SE
CZ-4 R/B 4.0 21:52:19 10° NNE 21:57:10 55° E 21:58:58 35° SSE
Cosmos 405 2.9 21:53:44 10° N 21:57:22 72° E 21:57:59 56° SE
ARGOS 3.5 21:56:06 32° SE 21:58:14 50° ENE 22:03:27 10° N
MetOp-A 4.1 21:57:12 28° SSE 22:00:06 86° WSW 22:05:29 10° NNW
Cosmos 2266 Rocket 4.2 21:54:46 10° S 22:01:07 75° W 22:07:23 10° N
Cosmos 2219 3.3 21:58:40 25° S 22:01:54 57° ESE 22:07:32 10° NNE
Cosmos 1633 Rocket 4.2 22:03:26 27° E 22:03:26 27° E 22:06:51 10° NNE
Sich 1 4.0 22:05:01 31° E 22:05:01 31° E 22:08:45 10° NNE
Cosmos 1437 2.9 22:08:45 63° SW 22:09:05 71° W 22:12:23 10° N
SL-24 R/B - RUBIN 2 4.5 22:06:16 10° NNW 22:13:02 81° ENE 22:15:40 39° SE
H-2A R/B 2.9 22:12:25 31° E 22:13:33 34° ENE 22:18:22 10° N
Cosmos 2322 3.8 22:08:04 10° NNW 22:13:45 63° ENE 22:15:33 42° SE
Cosmos 1805 Rocket 3.5 22:14:46 56° SSE 22:15:35 72° E 22:20:02 10° N
ATLAS 2AS CENTAUR R/B 4.4 22:16:57 17° E 22:16:57 17° E 22:20:29 10° ENE
Cosmos 2151 3.4 22:14:56 29° SSW 22:16:51 58° W 22:21:00 10° N
Cosmos 1726 3.5 22:14:13 10° NNE 22:16:52 28° ENE 22:16:52 28° ENE
SPOT 5 3.8 22:15:45 23° SSW 22:17:58 38° W 22:22:17 10° NNW
Cosmos 1908 4.1 22:14:23 10° NNW 22:18:06 44° W 22:19:15 34° SW
Cosmos 1244 Rocket 4.4 22:16:39 35° S 22:19:31 73° E 22:25:48 10° N
Cosmos 2322 Rocket 3.4 22:16:14 10° NW 22:21:14 34° WSW 22:24:16 20° SSW
Cosmos 1151 Rocket 3.8 22:20:40 10° NNW 22:24:47 46° W 22:26:10 34° SW
SPOT 1/Viking Rocket 3.6 22:23:43 42° S 22:25:26 71° WSW 22:30:35 10° NNW
Meteor 1-11 4.2 22:24:25 42° S 22:26:26 77° E 22:32:12 10° NNE
NOAA 11 4.1 22:27:46 48° S 22:29:21 86° WSW 22:34:50 10° NNW
SL-16 R/B 3.6 22:24:56 10° NW 22:29:51 31° WSW 22:32:42 20° SSW
Cosmos 2360 Rocket 2.1 22:27:18 10° NNW 22:32:59 85° WSW 22:34:20 54° SSE
Cosmos 1666 Rocket 3.4 22:37:19 84° SSW 22:37:27 87° W 22:41:53 10° N
Cosmos 1707 Rocket 3.4 22:33:17 10° N 22:37:34 81° ENE 22:37:34 81° ENE
Cosmos 1745 Rocket 4.2 22:36:53 48° ESE 22:37:49 52° E 22:43:48 10° NNE
Cosmos 1680 Rocket 3.5 22:34:21 10° NNW 22:39:34 75° WSW 22:40:30 59° SSW
NOSS 3-1 (C) 3.3 22:37:45 25° SSW 22:41:20 87° WNW 22:47:40 10° NNE
SL-08 R/B 4.4 22:41:00 54° SSE 22:42:16 68° E 22:48:28 10° NNE
CZ-4C R/B 3.9 22:46:07 47° NNW 22:46:07 47° NNW 22:48:43 10° NNW
Cosmos 2150 Rocket 3.9 22:45:49 67° S 22:46:34 82° ESE 22:52:03 10° NNE
Cosmos 1300 3.3 22:46:13 10° NNW 22:49:23 54° NW 22:49:23 54° NW
DMSP B5D2-2 3.9 22:45:03 10° NNE 22:50:18 81° ESE 22:50:40 75° SSE
Cosmos 1898 Rocket 3.3 22:50:22 77° S 22:50:46 87° ESE 22:55:59 10° NNE
Cosmos 1626 4.4 22:53:56 17° NE 22:53:56 17° NE 22:55:04 10° NNE
Cosmos 2058 4.2 22:52:12 32° WSW 22:52:57 34° W 22:56:43 10° NNW
SL-08 RB Rocket 4.2 22:52:50 47° WSW 22:53:05 48° W 22:57:25 10° NNW
Cosmos 2227 Rocket 3.2 22:54:43 32° ENE 22:54:43 32° ENE 22:58:32 10° NE
Meteor 1-4 Rocket 4.0 22:54:56 10° N 22:57:18 35° N 22:57:18 35° N
Cosmos 858 Rocket 4.4 22:59:59 78° SW 23:00:18 84° WNW 23:05:32 10° NNE
Cosmos 2333 Rocket 3.5 22:55:42 10° N 23:00:34 28° ENE 23:01:13 27° ENE
Meteor 2-10 4.2 23:00:43 10° N 23:06:24 69° E 23:06:31 68° E
SL-16 R/B 4.5 23:05:48 10° NNE 23:07:58 12° NE 23:09:30 11° ENE
Landsat 7 4.4 23:09:32 48° W 23:09:32 48° W 23:14:07 10° NNW
Cosmos 2242 Rocket 4.0 23:05:15 10° N 23:09:01 61° NNW 23:09:01 61° NNW
Cosmos 1386 Rocket 4.3 23:11:02 71° ESE 23:11:12 72° E 23:17:11 10° N
IGS 5A 4.3 23:13:10 49° NW 23:13:10 49° NW 23:16:22 10° NNW
COSMOS 2428 2.6 23:06:36 10° NNW 23:12:18 84° WSW 23:12:26 83° SW
H-2A R/B 4.1 23:07:09 10° WSW 23:12:23 62° SSE 23:57:27 10° E
Cosmos 1455 4.1 23:09:35 10° N 23:11:23 24° NNE 23:11:23 24° NNE
Spot 4 4.0 23:15:50 70° NW 23:15:50 70° NW 23:20:11 10° NNW
USA 32 4.3 23:14:12 10° NNW 23:19:21 58° W 23:19:29 57° W
SeaSat 1 3.5 23:21:10 36° NE 23:21:10 36° NE 23:25:24 10° N
Cosmos 2297 Rocket 3.1 23:22:46 35° ENE 23:22:46 35° ENE 23:26:29 10° NE
Terra 2.6 23:25:53 45° W 23:25:53 45° W 23:29:58 10° NNW
NOSS 0 Rocket 4.1 23:23:15 10° NNW 23:29:19 58° ENE 23:29:27 58° ENE
Cosmos 292 Rocket 4.4 23:30:02 10° NNW 23:33:39 52° NNW 23:33:39 52° NNW
Cosmos 2219 Rocket 2.3 23:31:03 10° NNW 23:36:07 69° NNE 23:36:07 69° NNE
DELTA 2 R/B (1) 4.0 23:32:46 10° WNW 23:37:02 54° WNW 23:37:02 54° WNW
GEOS 3 Rocket 4.5 23:41:20 41° NE 23:41:21 41° NE 23:46:12 10° NNW
Cosmos 1980 4.0 23:43:00 10° NNW 23:47:57 61° NNE 23:47:57 61° NNE
H-2A R/B 3.7 23:53:03 25° W 23:53:03 25° W 23:57:18 10° NW
